Flag for Iceland Weather past 2 weeks in Reykjavik, Iceland

Now
50 °F

Partly sunny.


Feels Like: 50 °F
Forecast: 47 / 57 °F
Wind: No wind

Location: Reykjavik Airport

Current Time: Jul 2, 2015 at 6:26:04 AM

Latest Report: Jul 2, 2015 at 6:00 AM


Visibility: N/A

Pressure: 29.89 "Hg

Humidity: 76%

Dew point: 43 °F

Location of ReykjavikLocation

Historic Weather in Reykjavik — Graph

°F

Reykjavik temperature yesterday

Maximum temperature yesterday: 59 °F (at 1:00 AM)
Minimum temperature yesterday: 52 °F (at 9:00 PM)
Average temperature yesterday: 55 °F

Past Weeks' High & Low Weather Summary

 TemperatureHumidityPressure
High64 °F (Jun 26, 5:00 PM)93% (Jun 17, 8:00 PM)30.21 "Hg (Jun 17, 8:00 PM)
Low43 °F (Jun 18, 10:00 PM)30% (Jun 26, 5:00 PM)29.33 "Hg (Jun 17, 5:00 AM)
Average51 °F72%29.86 "Hg
* Reported Jun 17 5:00 AM — Jul 2 5:00 AM, Reykjavik, Weather by CustomWeather, © 2015

Note: Actual official high and low records may vary slightly from our data, if they occured in-between our weather recording intervals... More about our weather records

Advertising

Reykjavik weather history for previous 24 hours

 ConditionsComfort  
Time TempWeatherWind HumidityBarometerVisibility
5:00 AM
Thu, Jul 2
50 °FPartly sunny.No wind76%29.86 "HgN/A
4:00 AM50 °FPartly sunny.No wind82%29.86 "HgN/A
3:00 AM52 °FPartly cloudy.6 mph77%29.89 "HgN/A
2:00 AM52 °FPartly cloudy.5 mph72%29.89 "HgN/A
1:00 AM52 °FPartly cloudy.7 mph72%29.89 "HgN/A
12:00 AM52 °FPassing clouds.9 mph77%29.86 "HgN/A
11:00 PM
Wed, Jul 1
52 °FPartly sunny.8 mph77%29.86 "HgN/A
10:00 PM52 °FPartly sunny.8 mph77%29.83 "HgN/A
9:00 PM52 °FMostly cloudy.8 mph82%29.83 "HgN/A
8:00 PM54 °FBroken clouds.9 mph72%29.80 "HgN/A
7:00 PM54 °FDrizzle. Mostly cloudy.9 mph72%29.80 "HgN/A
6:00 PM54 °FScattered showers. Overcast.10 mph72%29.77 "HgN/A
5:00 PM55 °FScattered showers. Broken clouds.13 mph72%29.77 "HgN/A
4:00 PM55 °FScattered showers. Broken clouds.14 mph72%29.74 "HgN/A
3:00 PM55 °FScattered showers. Broken clouds.15 mph67%29.71 "HgN/A
2:00 PM54 °FScattered showers. Partly sunny.14 mph72%29.71 "HgN/A
1:00 PM55 °FBroken clouds.16 mph63%29.68 "HgN/A
12:00 PM55 °FLight rain. Partly sunny.21 mph67%29.65 "HgN/A
11:00 AM59 °FPartly sunny.18 mph48%29.65 "HgN/A
10:00 AM59 °FBroken clouds.15 mph48%29.62 "HgN/A
9:00 AM59 °FBroken clouds.12 mph51%29.62 "HgN/A
8:00 AM57 °FScattered showers. Broken clouds.13 mph51%29.62 "HgN/A
7:00 AM57 °FBroken clouds.7 mph55%29.59 "HgN/A
6:00 AM55 °FBroken clouds.7 mph59%29.59 "HgN/A
Weather by CustomWeather, © 2015

See weather overviewHow to use our weather pages